RH
8 8 9 11 13 15 17 17 18 22 25 40 61 72 99 93 75 88 91 97 100 100 89 85 76 73 93 66 38 28 28 27 31 37 40 42 36 35 32 27 26 30 28 24 20 19 17 15 13 12 13 16 16 16
7 8 9 10 12 15 16 18 20 22 22 33 67 83 96 100 96 86 98 96 100 100 92 90 78 68 99 77 54 33 29 30 30 37 42 44 41 33 32 36 35 31 28 30 28 24 20 18 16 14 15 19 27 28
8 8 10 11 12 15 16 18 20 20 24 38 62 75 89 100 99 85 98 99 100 100 96 86 82 65 72 100 80 45 32 31 32 33 41 47 48 44 37 33 30 31 33 32 29 30 28 24 22 20 18 22 27 34
8 9 10 12 13 15 16 19 19 21 22 32 55 82 97 100 100 94 98 91 100 100 100 98 86 73 62 81 100 84 42 35 34 35 37 45 46 48 46 44 43 33 29 30 28 31 30 29 30 29 27 25 27 33
9 10 11 12 13 13 16 17 19 20 21 33 59 81 97 100 100 99 90 97 100 100 100 100 93 92 75 60 80 100 90 48 40 38 40 38 39 43 47 48 48 46 44 36 36 36 35 35 39 40 37 34 32 32
10 9 11 12 13 14 16 17 18 19 22 34 56 89 100 100 100 100 94 95 98 100 100 100 99 92 94 77 61 71 99 97 68 45 44 43 46 50 45 43 45 49 54 55 52 43 38 34 35 36 40 48 53 54
10 10 10 11 12 14 16 17 18 18 21 27 48 77 100 100 100 100 100 100 95 100 100 100 97 88 91 93 88 67 70 99 100 91 65 50 52 61 59 53 52 51 54 62 68 71 68 65 56 48 44 45 43 41
12 11 11 11 13 14 16 16 18 20 21 24 38 71 100 100 98 94 99 90 92 93 98 100 87 93 91 98 88 87 72 73 96 100 96 90 87 67 55 68 63 65 64 64 68 75 78 78 77 79 83 85 86 81
12 12 11 12 14 16 18 17 18 19 22 24 30 67 99 97 82 81 93 88 82 84 92 100 100 99 94 90 97 90 80 80 74 80 94 100 100 99 94 89 68 67 71 76 75 79 81 84 88 86 89 90 88 84
12 12 12 13 14 16 17 18 19 20 24 23 25 63 95 98 87 93 98 88 59 66 78 100 100 100 96 74 92 99 92 85 86 91 78 82 93 98 100 98 100 100 100 97 97 98 100 98 95 96 93 87 86 90
12 12 12 13 15 17 18 18 19 22 27 24 23 38 78 100 99 93 83 77 70 64 83 100 100 100 99 87 74 86 89 88 79 76 75 92 73 74 77 91 100 100 99 98 100 100 100 99 93 83 78 80 84 87
14 13 13 14 15 17 18 19 19 22 30 29 27 34 51 83 96 86 73 70 68 67 72 100 100 100 100 92 81 76 74 82 72 80 74 76 68 72 76 76 72 75 79 88 96 97 98 92 85 76 75 78 84 84
15 14 14 15 16 18 18 19 21 26 38 35 26 31 33 52 81 80 78 75 83 97 97 92 92 100 100 100 97 90 76 64 82 83 74 70 83 90 85 83 79 74 76 74 72 73 74 75 75 78 82 80 78 84
15 15 15 16 16 18 19 20 20 23 34 30 27 25 27 29 40 62 84 81 77 93 97 84 74 90 100 100 100 93 86 80 73 92 92 73 68 72 78 82 86 91 90 93 100 98 91 86 90 94 97 100 100 100
15 15 16 16 17 18 20 21 22 22 25 27 27 23 22 24 27 38 68 90 82 77 83 84 89 85 91 100 100 100 90 80 86 100 100 98 99 84 86 87 78 82 91 99 98 99 100 100 100 100 100 100 100 95
15 15 16 16 16 17 19 20 21 22 23 24 23 23 24 22 27 39 56 76 84 77 79 81 81 84 90 93 97 98 96 94 100 100 99 98 94 92 87 83 91 85 88 95 97 97 95 97 100 100 98 96 91 86
16 16 15 15 16 16 18 19 21 20 21 22 23 23 25 23 23 26 29 39 51 59 65 72 67 70 81 93 98 91 100 100 96 100 99 100 100 93 97 100 96 100 100 100 100 100 100 97 93 92 89 90 89 88
15 16 15 15 15 15 16 16 18 19 20 21 23 23 23 23 22 22 23 26 29 38 56 68 71 77 89 90 95 98 99 97 88 83 87 86 92 97 100 100 100 99 100 100 97 97 97 98 96 99 99 94 93 96
15 15 14 14 14 14 14 15 16 17 18 18 20 20 20 20 20 20 19 21 22 26 32 40 50 65 75 80 83 83 84 93 92 82 81 82 79 83 92 93 89 89 96 100 100 100 93 90 94 93 91 99 100 99
13 14 14 14 14 14 14 14 15 16 17 17 17 18 18 19 20 21 20 19 19 23 27 30 37 51 58 73 83 77 75 78 78 76 83 88 85 84 87 88 85 84 86 95 99 99 93 96 90 86 92 96 88 84
13 13 13 13 13 13 14 15 15 15 15 16 17 16 16 15 16 17 17 17 19 20 25 32 32 30 41 47 48 54 60 67 74 87 87 80 79 81 77 74 80 89 97 94 84 74 70 71 72 72 72 78 79 76
15 14 14 13 13 12 13 13 13 14 14 14 15 15 14 14 14 15 16 18 19 20 21 21 20 21 27 35 43 50 56 60 59 58 62 62 56 54 57 61 64 66 70 71 69 70 70 71 73 75 76 70 63 57
12 13 14 14 15 15 14 14 13 12 12 12 12 13 13 13 13 13 15 19 23 21 18 19 19 20 22 23 26 30 32 34 36 36 36 37 40 41 40 38 37 41 48 54 55 57 55 52 53 54 53 50 48 40
12 12 12 13 14 15 15 15 14 14 13 11 10 10 11 11 11 13 16 17 15 13 16 19 21 20 19 20 21 24 26 26 29 31 31 32 36 38 38 38 34 33 31 30 35 38 38 40 43 44 42 40 35 34
14 14 13 12 12 12 12 12 12 12 11 11 11 11 11 11 11 12 13 12 11 12 13 14 14 15 16 17 19 19 19 19 22 26 27 27 29 31 32 32 31 29 30 31 32 35 38 35 32 30 28 27 27 27
9 9 9 8 9 9 11 12 12 11 10 10 10 11 11 12 12 13 11 10 10 10 12 12 13 14 15 16 16 16 17 17 17 18 19 19 21 23 26 27 27 27 28 29 30 32 32 31 28 26 26 25 23 22
8 8 8 9 10 11 12 12 13 12 11 11 10 10 10 11 11 12 12 12 12 11 11 12 12 13 13 14 14 14 14 14 15 16 17 17 18 18 19 21 24 25 26 27 29 29 29 28 27 25 23 19 16 13
9 8 8 9 11 11 12 12 12 11 10 10 10 10 11 10 10 11 12 11 11 11 11 12 13 13 14 14 14 14 14 14 15 15 17 18 19 19 20 20 21 22 23 22 22 21 20 18 15 13 11 11 10 10
9 10 9 9 9 9 11 12 12 12 11 11 10 10 10 10 10 10 10 11 12 11 12 12 12 12 13 14 15 15 16 16 17 16 17 17 17 16 15 14 15 14 13 12 11 11 11 10 10 10 9 9 9 8
7 8 9 9 9 9 9 9 10 10 11 11 11 11 10 10 10 10 9 10 10 10 11 11 11 11 11 11 11 12 12 12 11 10 10 10 10 9 9 9 10 9 9 9 8 8 8 8 8 8 8 8 8 8
6 6 8 9 9 9 9 9 9 9 9 9 9 9 10 10 10 10 10 9 9 9 9 9 9 9 9 9 10 9 9 9 9 9 9 8 8 8 8 8 8 8 8 8 8 8 8 7 7 7 7 7 7 7
6 6 7 7 8 9 10 10 10 9 9 9 9 8 8 8 8 8 8 9 9 9 9 9 10 10 10 9 9 9 9 9 9 9 8 8 8 8 8 8 8 9 9 8 8 8 7 6 6 7 6 6 6 6
5 5 5 6 6 6 7 8 9 10 10 10 10 9 8 8 8 8 8 8 8 8 8 8 8 8 8 8 8 8 8 8 8 8 8 8 7 7 7 7 7 7 7 7 6 6 6 6 6 6 6 6 6 6
Wind_Speed
71 75 81 89 94 96 90 80 80 76 82 85 86 84 78 72 68 64 58 52 48 44 39 34 30 24 20 21 15 12 8 7 10 15 21 27 31 36 42 47 51 50 43 34 27 22 18 14 12 15 19 21 25 38
71 74 77 85 89 90 85 82 77 78 78 87 86 84 81 75 70 67 62 57 51 46 41 36 31 28 24 21 20 16 11 7 6 9 14 19 24 28 31 37 42 47 50 49 40 30 22 17 15 14 14 16 19 26
70 72 73 78 83 84 81 80 78 79 76 89 89 85 81 77 72 70 66 59 54 49 43 40 34 31 26 23 23 20 17 12 9 7 8 12 17 21 23 27 30 34 38 42 46 45 36 26 19 15 13 13 12 15
68 70 69 75 84 85 84 79 78 78 78 87 92 89 85 80 75 72 69 64 59 52 46 41 38 36 30 28 22 24 22 19 15 12 8 8 10 14 18 22 23 24 26 30 33 36 39 42 37 26 17 11 9 11
66 70 72 75 81 84 83 82 81 77 78 86 93 89 87 83 79 76 72 68 63 56 51 47 42 40 36 31 29 24 25 25 21 18 15 13 11 11 12 15 18 20 22 22 23 24 25 27 29 30 31 28 22 11
68 70 72 75 76 82 86 87 84 79 81 89 94 91 89 85 83 78 75 71 66 60 55 51 46 42 39 38 33 31 27 27 27 24 22 20 18 17 15 14 13 14 16 19 19 19 19 18 18 16 15 14 13 11
66 70 72 73 75 77 83 82 81 83 84 87 93 95 93 90 85 80 77 77 71 65 59 55 51 47 41 38 39 36 31 29 27 30 28 24 23 24 22 19 18 15 15 15 15 16 16 17 16 16 15 14 13 13
65 67 69 72 74 77 78 81 84 86 85 87 92 94 96 94 89 85 81 78 73 70 64 56 52 50 47 43 41 39 38 34 32 31 31 31 29 29 27 29 25 22 21 21 20 19 20 20 20 20 20 21 23 23
63 65 69 73 75 77 81 84 86 86 87 88 91 95 100 98 91 85 82 81 77 73 66 59 57 58 55 51 44 42 40 40 39 38 34 31 32 35 29 33 34 31 28 27 28 28 27 27 27 28 28 30 32 33
63 65 68 72 76 80 83 85 87 90 90 91 94 97 98 98 95 93 91 87 80 76 66 62 61 62 61 57 50 46 43 40 41 41 39 39 39 35 35 34 34 36 37 36 35 35 35 35 36 37 39 39 36 33
63 67 69 72 77 81 83 86 90 91 90 92 94 95 97 98 102 100 93 89 82 75 71 70 67 67 65 62 57 54 49 48 45 45 42 44 43 42 43 41 39 37 36 37 38 39 39 39 39 38 38 39 41 42
64 67 70 73 77 80 82 86 89 90 90 91 94 96 96 103 106 103 99 94 84 80 78 78 75 72 68 67 66 63 59 54 50 49 46 48 46 48 48 46 45 44 45 44 44 44 44 45 45 45 46 47 49 50
63 68 71 74 78 79 81 86 90 91 93 93 93 98 100 102 106 107 103 95 89 83 85 83 79 79 75 72 71 70 68 62 59 57 53 56 52 51 49 49 50 49 49 49 50 50 50 51 51 51 52 54 56 57
62 68 72 74 77 79 80 85 89 92 95 93 92 94 99 102 102 99 98 100 97 93 89 86 85 83 81 79 78 76 73 72 67 61 63 65 60 57 54 52 52 52 52 53 54 53 54 56 57 58 59 62 63 65
61 65 71 75 77 80 82 83 87 91 94 95 95 95 95 94 93 96 99 100 102 99 95 92 91 88 87 86 84 83 80 76 71 68 68 69 68 64 62 61 59 59 59 58 59 60 62 63 65 67 68 71 73 75
61 64 69 75 78 80 83 84 86 90 96 96 94 93 91 89 89 90 94 99 101 102 102 99 99 97 92 92 89 88 84 81 77 77 76 75 74 74 70 69 67 66 66 67 68 69 70 71 73 76 78 79 82 83
59 62 66 71 76 78 81 84 85 87 90 91 90 89 90 88 87 88 90 93 96 99 103 104 103 103 99 96 92 92 89 88 86 82 81 81 82 81 80 76 75 75 75 75 75 75 76 79 81 83 85 86 88 88
58 61 64 67 72 76 79 81 83 84 87 88 89 89 89 87 85 86 88 90 93 95 97 100 102 103 102 101 99 97 97 95 92 90 88 87 86 85 84 84 83 82 84 85 85 86 86 87 88 89 92 92 92 93
57 60 61 64 67 71 74 77 79 82 84 86 87 87 88 88 87 86 86 90 91 92 95 96 97 98 99 100 100 100 99 98 95 93 93 92 90 89 90 89 90 91 91 90 91 92 94 94 93 94 95 98 100 101
58 59 59 61 64 66 69 73 76 79 82 83 84 86 86 87 88 87 86 87 88 89 91 93 95 95 96 97 97 97 97 97 95 95 94 93 93 93 94 94 93 94 96 97 98 100 100 100 101 101 101 103 106 109
53 56 57 60 61 63 65 68 70 75 79 81 82 83 85 86 86 87 87 87 89 90 91 95 96 95 94 94 92 92 92 92 91 90 91 93 94 95 96 98 98 98 98 100 102 105 106 106 105 105 105 107 110 112
55 55 56 57 59 60 63 65 66 69 72 75 79 81 81 80 80 82 82 84 86 91 94 95 94 91 90 90 90 89 90 90 91 91 91 92 92 91 93 94 95 97 99 99 100 102 101 102 102 103 103 104 104 104
53 54 56 57 57 58 59 60 61 63 66 69 72 74 75 76 75 74 75 80 85 87 85 86 88 87 89 91 90 90 90 90 90 90 90 89 89 89 89 90 90 91 93 95 95 94 95 96 98 99 100 102 101 99
50 51 53 55 57 59 59 59 59 60 61 63 63 64 67 68 69 72 75 79 78 76 78 81 84 86 85 86 86 88 89 87 87 88 89 90 90 92 90 89 89 89 89 88 89 90 91 93 95 94 96 98 98 98
48 50 53 55 55 56 57 58 58 58 58 56 57 58 60 62 65 66 71 73 72 74 76 76 77 79 82 85 86 87 87 84 82 84 88 87 86 86 87 87 86 86 86 86 87 90 92 93 92 93 91 89 89 91
44 48 50 49 51 53 54 55 56 55 54 55 57 58 58 56 57 61 67 68 68 69 70 71 72 73 76 77 79 79 80 79 79 80 82 80 80 82 84 85 85 85 84 85 85 87 88 89 89 88 87 87 88 88
39 42 44 45 46 48 50 51 52 53 53 55 56 55 53 54 56 60 61 61 61 61 62 63 65 68 69 70 73 73 72 72 75 78 78 78 77 78 78 79 80 81 83 84 84 86 88 88 88 88 88 87 87 87
34 37 39 41 43 44 46 48 49 51 53 53 52 51 52 54 55 54 55 56 56 58 58 59 61 63 65 65 65 66 66 68 69 71 73 75 76 77 79 79 81 81 82 83 83 83 84 84 83 83 83 82 81 79
31 33 35 38 40 42 44 46 48 48 49 50 49 49 51 51 52 53 54 54 54 55 56 58 60 61 62 62 63 64 64 64 65 67 68 69 71 72 72 73 74 75 75 76 76 76 75 75 76 75 74 73 71 69
30 31 32 34 35 37 38 40 42 44 45 47 48 48 49 50 49 49 48 49 51 53 55 56 57 58 59 61 61 61 62 64 64 65 67 67 68 67 66 66 67 67 66 67 67 66 66 66 66 65 64 63 63 63
26 29 30 30 30 32 33 34 36 38 39 41 43 45 45 46 46 47 47 48 49 49 50 50 51 51 51 52 55 55 56 57 58 58 60 61 60 58 58 58 58 59 59 59 60 61 62 61 60 59 59 59 58 58
20 22 23 25 26 28 30 31 32 33 34 36 37 38 40 41 41 42 43 44 45 45 45 45 46 46 47 48 49 51 51 52 52 53 53 53 53 53 53 53 54 54 55 56 57 57 56 55 55 55 55 53 52 51
18 19 21 23 25 27 28 29 30 31 32 32 33 34 34 34 34 36 37 39 40 40 41 42 43 45 46 46 47 48 48 49 49 49 50 50 50 50 50 50 49 49 49 49 50 50 50 49 49 48 48 47 44 42
Wind_Direction
210 208 209 208 210 213 215 216 211 206 207 202 201 205 206 209 214 218 219 221 228 236 239 238 239 240 248 245 253 266 286 321 356 14 20 26 34 39 42 43 46 49 49 48 52 60 70 86 116 140 149 167 188 202
207 206 206 206 206 209 211 211 207 204 204 202 200 203 206 208 212 217 219 219 224 233 235 234 237 234 238 243 243 248 253 271 304 348 10 19 23 33 40 43 45 46 50 53 53 53 60 71 87 113 132 149 171 195
205 204 204 204 204 206 208 207 207 203 201 199 199 202 204 207 211 216 217 219 222 229 231 233 233 233 232 240 239 241 245 244 260 288 333 360 10 13 22 30 36 44 48 50 55 58 58 62 71 87 109 129 152 185
204 203 202 201 202 205 205 205 204 204 204 201 200 203 204 207 211 215 217 218 221 227 230 232 231 233 233 233 240 239 241 244 245 255 273 306 339 352 360 8 18 26 34 44 51 56 58 63 66 70 77 96 133 171
202 202 200 200 202 202 203 204 205 204 202 202 200 201 205 208 211 214 215 218 221 224 227 229 234 232 233 235 234 241 239 242 246 249 257 267 284 305 325 342 352 2 12 19 27 40 46 54 60 64 69 73 78 93
200 200 200 201 200 201 204 206 206 204 202 200 201 202 205 207 210 214 217 217 220 221 224 228 232 234 234 235 235 237 244 245 244 247 251 259 267 276 285 299 316 332 343 349 356 2 11 20 27 33 40 46 49 55
199 199 200 200 200 201 201 202 204 204 203 202 202 203 207 209 211 213 215 216 217 218 221 225 229 234 235 237 239 238 239 246 249 247 249 252 260 266 272 276 285 291 303 313 319 327 334 339 341 342 343 344 341 334
198 199 199 199 198 199 200 200 199 201 203 204 203 205 208 209 210 212 215 216 216 217 221 224 229 235 236 239 240 241 239 240 246 252 253 251 253 258 263 272 269 277 281 287 293 298 302 306 309 310 310 309 307 304
197 197 197 197 197 197 198 200 199 201 202 204 205 206 208 210 211 212 215 218 217 218 220 221 227 234 236 237 240 241 242 244 246 248 249 254 255 257 259 259 271 272 270 271 278 283 285 289 290 292 293 294 294 294
196 196 195 195 195 197 198 199 200 201 204 206 207 207 209 211 212 214 217 218 218 217 216 221 227 232 237 238 238 240 242 244 246 250 251 253 255 259 261 261 260 266 271 273 274 276 279 282 285 286 287 288 286 283
194 195 194 194 195 196 199 200 202 203 206 208 208 209 210 212 214 215 217 219 219 218 219 222 225 230 237 240 240 242 243 244 248 253 252 257 256 260 261 263 264 265 267 271 273 276 278 279 280 280 281 283 285 286
195 195 195 196 197 198 200 201 203 204 207 209 209 211 211 214 215 216 217 218 218 220 221 224 225 228 232 238 242 244 243 245 248 254 255 258 259 261 262 263 264 265 267 268 269 270 273 275 278 280 281 282 283 284
196 196 196 197 199 201 201 202 204 206 209 211 212 212 213 215 217 218 218 218 220 221 223 226 228 229 231 236 240 243 246 245 249 255 260 260 259 261 263 265 267 269 271 272 273 274 274 276 277 278 279 279 281 282
198 198 197 199 200 201 203 204 207 208 210 212 214 215 216 216 218 218 220 221 222 223 225 227 230 232 234 237 239 243 246 248 250 254 258 260 261 261 262 265 266 268 270 272 273 274 275 276 276 276 276 277 278 280
201 200 200 201 202 203 204 206 209 211 213 214 215 218 219 218 219 219 220 222 223 224 226 227 231 233 234 237 241 243 246 248 250 252 255 258 260 262 263 265 267 267 266 266 268 270 271 271 271 273 275 276 277 279
203 203 203 204 204 205 206 208 211 212 215 216 218 219 221 220 218 221 221 224 225 227 227 228 231 232 236 239 241 244 244 246 248 250 253 255 259 261 264 265 267 267 266 266 268 269 270 272 272 273 274 276 278 279
206 206 206 206 207 207 208 210 212 214 216 218 219 219 222 222 220 220 222 224 226 229 230 230 232 235 237 239 243 243 244 245 247 249 250 253 257 261 264 263 264 265 265 266 268 270 272 273 274 275 275 276 278 280
207 209 209 209 209 210 211 213 214 216 218 219 221 222 222 222 222 222 223 224 226 228 230 232 233 235 238 240 242 243 245 246 248 249 249 252 254 257 260 262 265 266 265 267 270 273 274 275 276 276 277 279 281 281
209 211 211 211 212 212 214 215 217 219 221 222 224 225 226 226 226 226 225 226 227 229 230 233 235 236 237 239 242 243 244 246 249 250 252 254 255 257 259 262 264 265 266 265 266 267 270 273 276 276 276 278 280 281
212 213 213 214 214 214 215 217 219 220 222 225 226 227 227 229 230 231 229 228 229 231 232 233 235 238 238 238 240 242 244 246 249 251 252 254 256 258 259 260 264 265 265 264 265 267 269 270 274 275 275 276 278 281
218 217 216 216 217 217 218 219 220 222 224 225 227 229 230 230 230 231 232 232 232 233 236 237 237 236 238 241 241 243 244 246 248 249 252 254 257 259 260 261 262 262 263 265 266 268 269 271 273 275 276 278 280 281
218 219 220 221 221 220 220 221 222 224 226 228 229 231 233 233 233 234 235 235 235 237 238 239 239 238 238 240 242 243 245 247 248 250 252 255 256 257 260 261 262 263 264 266 267 268 271 274 276 277 278 279 281 282
216 216 217 219 222 224 226 226 226 228 229 230 231 233 234 236 236 237 237 238 238 239 239 241 243 243 242 242 242 244 245 247 249 250 253 254 256 258 260 261 262 263 265 266 267 269 272 274 276 277 279 281 283 285
220 220 219 219 220 221 223 226 228 230 233 234 235 236 237 238 239 238 238 239 240 241 241 242 243 244 246 246 247 247 247 247 249 250 251 251 253 256 259 262 264 266 267 269 271 272 274 275 277 279 280 282 283 285
218 220 221 222 222 223 224 225 227 229 232 235 236 236 237 238 238 239 240 240 240 240 241 242 242 244 246 247 248 250 250 248 247 247 250 252 255 258 260 262 265 267 268 270 271 272 273 275 276 276 278 280 282 284
224 224 224 223 223 224 225 227 229 232 233 234 234 233 234 235 238 238 239 241 241 241 243 243 243 244 244 246 248 248 249 250 251 251 251 251 252 254 257 259 262 264 266 267 269 270 271 274 276 279 281 282 282 283
220 223 227 229 228 227 227 229 230 232 233 235 237 237 236 236 236 238 240 241 243 244 243 244 245 246 247 247 248 249 250 250 251 252 253 255 256 257 259 261 263 264 266 267 269 271 273 274 275 276 277 279 280 282
219 221 222 224 227 228 228 229 230 231 233 235 237 238 238 238 238 239 240 241 241 243 244 244 244 245 247 248 248 250 249 249 250 251 252 253 254 256 257 259 261 262 264 266 266 267 269 271 274 275 277 278 279 281
216 218 221 222 224 225 226 228 230 231 233 235 236 236 238 239 239 238 238 239 240 241 242 244 245 246 248 249 250 251 253 253 253 254 255 256 256 257 258 260 261 263 264 266 267 269 270 272 273 275 277 279 282 284
218 220 221 222 224 226 228 229 231 232 233 234 236 237 237 238 240 241 241 241 241 241 242 243 244 245 246 248 250 251 253 253 254 255 256 258 259 260 262 264 265 266 267 269 270 272 273 274 276 278 279 281 281 282
224 225 226 226 227 229 230 231 232 234 235 236 237 239 240 240 240 241 241 242 242 243 244 245 246 247 248 249 249 251 252 253 254 256 257 259 261 263 264 265 266 267 269 270 271 272 273 274 276 278 280 281 283 284
225 228 231 232 232 233 234 234 234 236 237 238 239 240 240 240 241 242 242 243 243 244 245 246 247 248 249 250 251 252 253 255 256 257 259 261 263 264 265 266 266 267 267 268 269 271 273 274 275 276 278 281 284 286
230 230 229 227 227 227 229 231 232 232 233 236 238 241 242 241 241 242 243 243 244 244 244 245 245 247 248 249 251 253 254 256 257 258 259 260 260 261 262 264 265 266 267 268 268 269 271 273 276 279 281 283 285 287